Regional Weather Roundup
Issued by NWS

Home | Current Version | Previous Version | Text Only | Print | Product List | Glossary Off
Versions: 1 2 3 4 5 6 7 8 9 10 11 12 13 14 15 16 17 18 19 20 21 22 23 24 25 26 27 28 29 30 31 32 33 34 35 36 37 38 39 40 41 42 43 44 45 46 47 48 49 50

000
ASUS45 KPSR 261010
RWRAZ

ARIZONA HOURLY REGIONAL WEATHER ROUNDUP
NATIONAL WEATHER SERVICE PHOENIX AZ
300 AM MST THU MAY 26 2016

NOTE: FAIR INDICATES FEW OR NO CLOUDS BELOW 12,000 FEET WITH NO
SIGNIFICANT WEATHER AND/OR OBSTRUCTIONS TO VISIBILITY.

AZZ001>003-036-261100-
NORTHWEST ARIZONA

CITY           SKY/WX    TMP DP  RH WIND       PRES   REMARKS
BULLHEAD CITY  CLEAR     68  30  24 E5        29.87F
KINGMAN        CLEAR     53  32  44 MISG      29.94F
$$

AZZ004>008-015-016-018-261100-
NORTH CENTRAL ARIZONA

CITY           SKY/WX    TMP DP  RH WIND       PRES   REMARKS
GRAND CANYON   MOCLDY    40  26  57 SW5       30.03S
WILLIAMS       PTCLDY    39  25  56 SW7       30.11S WCI  34
PRESCOTT       CLOUDY    49  26  41 S6        30.00F
FLAGSTAFF      PTCLDY    36  22  56 W3        30.03F
PAYSON         CLEAR     50  19  29 CALM      30.02F
PAGE           PTCLDY    63  25  23 W6        29.89F
$$

AZZ009>014-017-261100-
NORTHEAST ARIZONA

CITY           SKY/WX    TMP DP  RH WIND       PRES   REMARKS
WINSLOW        PTCLDY    45  24  43 SW9       29.97F
SAINT JOHNS    CLEAR     50  15  24 S3        30.02S
WINDOW ROCK    CLEAR     38  18  44 CALM      30.04
SHOW LOW       CLEAR     39  14  35 S8        30.05F WCI  34
$$

AZZ023-261100-
GREATER PHOENIX AREA

CITY           SKY/WX    TMP DP  RH WIND       PRES   REMARKS
PHOENIX        CLEAR     70  33  25 SW5       29.88S
BUCKEYE        CLEAR     63  36  36 S5        29.91S
LUKE AFB       CLEAR     66  36  33 SW10      29.88S
DEER VALLEY    CLEAR     66  30  26 S5        29.89S
SCOTTSDALE     CLEAR     66  27  23 E5        29.91S
MESA-GATEWAY   CLEAR     61  27  27 E5        29.92S
$$

AZZ027-028-261100-
SOUTHWEST MARICOPA COUNTY AND PINAL COUNTY

CITY           SKY/WX    TMP DP  RH WIND       PRES   REMARKS
CASA GRANDE    CLEAR     61  28  29 CALM      29.93S
GILA BEND      FAIR      64  37  36 S8        29.90S
$$

AZZ503-504-507>509-261100-
SOUTHEAST ARIZONA

CITY           SKY/WX    TMP DP  RH WIND       PRES   REMARKS
TUCSON         CLEAR     61  20  20 SE6       29.99F
DAVIS-MONTHAN  CLEAR     57  21  24 SE8       29.97F
NOGALES        CLEAR     51  26  37 E5        30.01F
SIERRA VISTA   CLEAR     54  24  32 NW5       30.04F
DOUGLAS        CLEAR     74  25  16 SW12      30.01F
SAFFORD        CLEAR     65  19  17 NW17      29.94R
$$

AZZ020-021-025-026-031-261100-
SOUTHWEST ARIZONA

CITY           SKY/WX    TMP DP  RH WIND       PRES   REMARKS
YUMA           CLEAR     63  43  48 SW6       29.91F
$$

CAZ031-033-041-043-047-048-061-261100-
SOUTHERN CALIFORNIA

CITY           SKY/WX    TMP DP  RH WIND       PRES   REMARKS
DOWNTOWN L.A.  CLEAR     58  53  84 CALM      30.05S
L.A. AIRPORT   PTCLDY    58  53  84 SW3       30.05F
SAN DIEGO      MOCLDY    63  52  67 SW5       30.08F
BURBANK        CLEAR     56  50  80 E6        30.04F
ONTARIO        PTCLDY    54  47  77 W5        30.05S
RIVERSIDE      CLEAR     56  46  69 CALM      30.05F
PALM SPRINGS     N/A    N/A N/A N/A MISG      29.90F
EL CENTRO NAS  CLEAR     63  40  42 W15       29.92F
IMPERIAL       CLEAR     62  42  47 W10       29.89F
BLYTHE         CLEAR     61  45  55 N6        29.87F
NEEDLES        CLEAR     71  39  31 W7        29.85F
$$

NVZ020-UTZ003-261100-
SOUTHERN NEVADA-UTAH

CITY           SKY/WX    TMP DP  RH WIND       PRES   REMARKS
LAS VEGAS      CLEAR     62  32  32 S6        29.85F
SALT LAKE CITY PTCLDY    51  45  79 N6        30.00S
$$

NMZ009-TXZ055-261100-
NEW MEXICO-WEST TEXAS

CITY           SKY/WX    TMP DP  RH WIND       PRES   REMARKS
ALBUQUERQUE    PTCLDY    56  14  19 E6        29.97F
EL PASO        CLEAR     73  23  15 SW15      29.95S
$$


........................KEY........................
SKY/WX - SKY CONDITION/WEATHER
TMP    - TEMPERATURE IN FAHRENHEIT
DP     - DEW POINT IN FAHRENHEIT
RH     - RELATIVE HUMIDITY IN PERCENT
WIND   - DIRECTION AND SPEED IN MILES PER HOUR (MPH)
VRB    - VARIABLE WIND DIRECTION
PRES   - MEAN SEA LEVEL PRESSURE IN INCHES OF MERCURY
         F - FALLING PRESSURE   R - RISING PRESSURE
         S - STEADY PRESSURE
VSB    - VISIBILITY IN MILES
HX     - HEAT INDEX IN FAHRENHEIT
WCI    - WIND CHILL INDEX IN FAHRENHEIT
TC     - TEMPERATURE IN CELSIUS WHICH IS ALSO KNOWN AS
         TEMPERATURE IN CENTIGRADE
AFB    - AIR FORCE BASE
         LUKE AFB IS LUKE AIR FORCE BASE
         DAVIS-MONTHAN IS DAVIS-MONTHAN AIR FORCE BASE
NAS    - NAVAL AIR STATION
         EL CENTRO NAS IS EL CENTRO NAVAL AIR STATION
N/A    - NOT AVAILABLE




USA.gov is the U.S. government's official web portal to all federal, state and local government web resources and services.